Kalamazoo, MI

10:41 AM EST on February 22, 2018 (GMT -0500)
Kalamazoo-Battle Creek International

Weather History for KAZO - December, 2011

Change the Weather History Date:

Sunday, December 11, 2011

  Actual Average Record
Temperature  
Mean Temperature 28 °F 30 °F  
Max Temperature 38 °F 36 °F 58 °F (1971)
Min Temperature 18 °F 24 °F 2 °F (1977)
Degree Days  
Heating Degree Days 37 35  
Month to date heating degree days 365  
Since 1 July heating degree days 1692  
Cooling Degree Days 0 0  
Month to date cooling degree days 0  
Year to date cooling degree days 675  
Moisture  
Dew Point 18 °F    
Average Humidity 67    
Maximum Humidity 75    
Minimum Humidity 57    
Precipitation  
Precipitation 0.00 in 0.06 in 1.01 in (1965)
Month to date precipitation 0.43 0.84  
Year to date precipitation 34.60  
Sea Level Pressure  
Sea Level Pressure 30.47 in    
Wind  
Wind Speed 10 mph (South)    
Max Wind Speed 18 mph    
Max Gust Speed 22 mph    
Visibility 10 miles    
Events      
T = Trace of Precipitation, MM = Missing Value Source: NWS Daily Summary

Daily Weather History Graph

Daily Weather History Graph

Search for Another Location

Airport or City:

Trip Planner

Search our weather history database for the weather conditions in past years. The results will help you decide how hot, cold, wet, or windy it might be!

Date:

Astronomy

Dec. 11, 2011 Rise Set
Actual Time 8:00 AM EST 5:10 PM EST
Civil Twilight 7:28 AM EST 5:41 PM EST
Nautical Twilight 6:53 AM EST 6:17 PM EST
Astronomical Twilight 6:19 AM EST 6:51 PM EST
Moon 6:19 PM EST (12/11) 8:48 AM EST (12/11)
Length of Visible Light 10h 12m
Length of Day
9h 09m
Full, 99% of the Moon is Illuminated
Dec 11
Full
Dec 17
Last Quarter
Dec 24
New
Jan 1
First Quarter
Jan 9
Full

Hourly Weather History & Observations

Time (EST) Temp. Windchill Dew Point Humidity Pressure Visibility Wind Dir Wind Speed Gust Speed Precip Events Conditions
12:53 AM 19.0 °F 8.2 °F 8.1 °F 62% 30.48 in 10.0 mi SSW 9.2 mph - N/A   Clear
1:53 AM 19.0 °F 9.0 °F 8.1 °F 62% 30.48 in 10.0 mi SSW 8.1 mph - N/A   Clear
2:53 AM 19.9 °F 10.1 °F 9.0 °F 62% 30.48 in 10.0 mi SSW 8.1 mph - N/A   Clear
3:53 AM 19.0 °F 8.2 °F 10.9 °F 71% 30.48 in 10.0 mi South 9.2 mph - N/A   Clear
4:53 AM 19.9 °F 8.6 °F 12.0 °F 71% 30.48 in 10.0 mi South 10.4 mph - N/A   Clear
5:53 AM 19.9 °F 10.1 °F 12.9 °F 74% 30.48 in 10.0 mi South 8.1 mph - N/A   Clear
6:53 AM 21.0 °F 8.6 °F 14.0 °F 74% 30.49 in 10.0 mi South 12.7 mph - N/A   Clear
7:53 AM 21.0 °F 9.3 °F 14.0 °F 74% 30.51 in 10.0 mi South 11.5 mph - N/A   Clear
8:53 AM 23.0 °F 11.7 °F 15.1 °F 72% 30.51 in 10.0 mi SSW 11.5 mph - N/A   Clear
9:53 AM 26.6 °F 16.2 °F 17.6 °F 69% 30.47 in 10.0 mi South 11.5 mph - N/A   Clear
10:53 AM 30.0 °F 21.1 °F 19.0 °F 64% 30.51 in 10.0 mi SSW 10.4 mph - N/A   Clear
11:53 AM 33.1 °F 23.0 °F 19.9 °F 59% 30.49 in 10.0 mi South 15.0 mph - N/A   Clear
12:53 PM 36.0 °F 28.5 °F 21.9 °F 57% 30.47 in 10.0 mi SSW 10.4 mph - N/A   Clear
1:53 PM 37.0 °F 28.9 °F 23.0 °F 57% 30.46 in 10.0 mi South 12.7 mph - N/A   Clear
2:53 PM 37.0 °F 28.1 °F 24.1 °F 59% 30.44 in 10.0 mi South 15.0 mph - N/A   Clear
3:53 PM 36.0 °F 27.5 °F 24.1 °F 62% 30.43 in 10.0 mi South 12.7 mph - N/A   Clear
4:53 PM 34.0 °F 27.2 °F 23.0 °F 64% 30.43 in 10.0 mi South 8.1 mph - N/A   Clear
5:53 PM 32.0 °F 24.2 °F 23.0 °F 69% 30.43 in 10.0 mi South 9.2 mph - N/A   Clear
6:53 PM 32.0 °F 23.6 °F 21.9 °F 66% 30.44 in 10.0 mi South 10.4 mph - N/A   Clear
7:53 PM 30.0 °F 21.7 °F 21.9 °F 72% 30.45 in 10.0 mi South 9.2 mph - N/A   Clear
8:53 PM 30.0 °F 21.7 °F 21.9 °F 72% 30.45 in 10.0 mi South 9.2 mph - N/A   Clear
9:53 PM 28.0 °F 19.3 °F 21.0 °F 75% 30.45 in 10.0 mi South 9.2 mph - N/A   Clear
10:53 PM 28.0 °F 20.0 °F 21.0 °F 75% 30.44 in 10.0 mi South 8.1 mph - N/A   Clear